Location: Santa Margarita Canyon
(34.4778°N, 118.2634°W)
Time: 06:41:03
(UTC+00:00)

Daily predictions for brighter satellites

Satellite Brightness Start Highest point End
(mag) Time Altitude Azimuth Time Altitude Azimuth Time Altitude Azimuth
H-2A R/B 4.0 12:01:12 10° N 12:04:46 36° WNW 12:08:09 11° SW
Cosmos 1844 Rocket 4.5 12:06:53 10° W 12:07:50 10° W 12:08:47 10° WSW
NOSS 2-3 (C) 4.3 12:04:27 10° S 12:07:51 37° ESE 12:11:07 10° NE
ADEOS Rocket 3.7 12:00:54 10° NNE 12:08:43 89° WNW 12:16:23 10° SSW
SL-08 RB Rocket 4.2 12:04:33 10° NNE 12:09:05 63° E 12:13:31 10° S
Lacrosse 4 Rocket 1.4 12:06:52 10° SW 12:10:48 62° WNW 12:14:54 10° NNE
NOSS 2-3 (D) 4.0 12:09:12 10° SSW 12:12:55 47° ESE 12:16:28 10° NE
Cosmos 1766 Rocket 4.2 12:09:41 10° SSW 12:13:38 36° W 12:17:36 10° NNW
Cosmos 371 Rocket 4.4 12:09:09 10° N 12:13:48 48° ENE 12:18:23 10° SE
Cosmos 1408 Rocket 4.5 12:12:14 10° SSE 12:16:20 49° E 12:20:29 10° NNE
Cosmos 1437 Rocket 3.2 12:20:22 10° NNW 12:23:42 34° W 12:26:59 10° SSW
Cosmos 1331 Rocket 4.1 12:18:45 10° SSW 12:23:47 59° WNW 12:28:52 10° N
ARGOS 3.3 12:18:43 10° N 12:24:04 62° WNW 12:29:23 10° SSW
Cosmos 1300 4.3 12:21:33 10° SSE 12:24:16 28° E 12:27:00 10° NNE
Cosmos 1943 Rocket 3.6 12:19:02 10° N 12:24:26 44° ENE 12:29:48 10° SE
OAO 3 Rocket 3.2 12:19:56 10° W 12:24:35 59° SSW 12:29:08 10° ESE
Iridium 4 Rocket 4.4 12:20:51 10° SSW 12:26:04 35° W 12:31:07 10° NNW
